Torna al catalogo

STARLINK-5164

AttivoComunicazioniVLEO
NORAD 54178·PAYLOAD·🇺🇸 United States

Lanciato Oct 28, 2022 da Vandenberg Space Force Base

Loading…

Prossimi Passaggi (prossime 24 ore)

TLE

AggiornatoSource: CelesTrak SupGP

Epoca: Sep 15, 2026, 02:25 UTC

1 54178C 22141X   26258.10118056 -.00036818  00000+0 -10880-2 0  2584
2 54178  53.1582 218.9570 0001313  89.1781 316.9419 15.34404083    11

Traccia STARLINK-5164 in tempo reale con AllMySat

Download on the App Store